time_stamp(utc),avg(mph),gust(mph),direction(deg),12m_air_temp(f),sonic_u(cm/s),sonic_v(cm/s),sonic_w(cm/s),pressure,2m_air_temp(f),pyranometer(W/m^2)
"2019-01-29 00:02:07+00",11.1,13.1,,29,382,292,19,1015.23,28,0
"2019-01-29 00:07:07+00",9.9,10.9,,29,383,208,21,1015.39,28,0
"2019-01-29 00:12:07+00",8.6,10.6,,28.8,330,173,17,1015.54,27.8,0
"2019-01-29 00:17:07+00",11.3,13.3,,29.1,441,223,22,1015.4,27.7,0
"2019-01-29 00:22:07+00",10.9,12.9,,29.1,419,234,17,1015.5,27.7,0
"2019-01-29 00:27:07+00",10.1,12.1,,29,401,201,23,1015.47,27.7,0
"2019-01-29 00:32:07+00",12.5,13.5,,29,482,268,32,1015.28,27.6,0
"2019-01-29 00:37:07+00",10.7,12.7,,28.9,416,213,24,1015.28,27.6,0
"2019-01-29 00:42:07+00",10.5,12.5,,29.1,414,202,18,1015.24,27.7,0
"2019-01-29 00:47:07+00",10.6,12.6,,29.1,407,229,15,1015.37,27.6,0
"2019-01-29 00:52:07+00",10.3,11.3,,29.2,364,264,19,1015.3,27.8,0
"2019-01-29 00:57:07+00",10.7,11.7,,29.4,381,266,28,1015.23,28,0
"2019-01-29 01:02:07+00",10.1,12.1,,29.4,354,261,22,1015.23,28.1,0
"2019-01-29 01:07:07+00",11.4,13.4,,29.4,418,273,19,1015.26,28,0
"2019-01-29 01:12:07+00",11.1,12.1,,29.4,394,278,30,1015.34,28.1,0
"2019-01-29 01:17:07+00",8.9,9.9,,29.2,299,230,14,1015.31,28,0
"2019-01-29 01:22:07+00",9.2,10.2,,29.2,273,260,12,1015.43,28,0
"2019-01-29 01:27:07+00",9.0,10.0,,29,259,270,9,1015.45,27.8,0
"2019-01-29 01:32:07+00",10.6,12.6,,29.1,287,328,2,1015.42,27.7,0
"2019-01-29 01:37:07+00",9.8,10.8,,29.2,246,329,2,1015.47,27.7,0
"2019-01-29 01:42:07+00",8.3,9.3,,28.7,154,311,0,1015.54,27.4,0
"2019-01-29 01:47:07+00",8.5,9.5,,28.3,175,313,7,1015.54,27,0
"2019-01-29 01:52:07+00",8.9,9.9,,28.2,162,335,2,1015.56,26.5,0
"2019-01-29 01:57:07+00",8.5,9.5,,28.1,84,346,2,1015.57,26.4,0
"2019-01-29 02:02:07+00",8.7,9.7,,28,140,332,-1,1015.45,26.3,0
"2019-01-29 02:07:07+00",9.3,10.3,,27.9,186,348,3,1015.36,26,0
"2019-01-29 02:12:07+00",9.2,10.2,,27.7,185,345,5,1015.39,25.8,0
"2019-01-29 02:17:07+00",7.9,8.9,,27.5,87,309,0,1015.51,25.6,0
"2019-01-29 02:22:07+00",8.5,9.5,,27.5,165,316,4,1015.39,25.5,0
"2019-01-29 02:27:07+00",8.6,9.6,,27.5,208,297,10,1015.3,25.3,0
"2019-01-29 02:32:07+00",8.1,9.1,,27.5,201,250,5,1015.41,25.3,0
"2019-01-29 02:37:07+00",7.2,8.2,,27.5,209,199,0,1015.36,25.2,0
"2019-01-29 02:42:07+00",7.0,8.0,,27.4,211,188,7,1015.37,25.2,0
"2019-01-29 02:47:07+00",7.6,8.6,,27.2,224,212,12,1015.43,25.2,0
"2019-01-29 02:52:07+00",8.3,9.3,,27.5,207,255,8,1015.42,25.1,0
"2019-01-29 02:57:07+00",9.2,10.2,,27.6,234,275,7,1015.33,24.9,0
"2019-01-29 03:02:07+00",9.6,10.6,,27.6,232,328,11,1015.41,24.8,0
"2019-01-29 03:07:07+00",8.6,8.6,,27.7,148,329,1,1015.47,24.8,0
"2019-01-29 03:12:07+00",8.7,9.7,,27.7,190,316,6,1015.46,24.9,0
"2019-01-29 03:17:07+00",8.4,8.4,,27.6,212,265,9,1015.34,24.8,0
"2019-01-29 03:22:07+00",8.0,9.0,,27.6,231,227,5,1015.29,24.9,0
"2019-01-29 03:27:07+00",7.3,8.3,,27.5,227,199,15,1015.26,25,0
"2019-01-29 03:32:07+00",8.3,9.3,,27.4,274,217,15,1015.26,25.1,0
"2019-01-29 03:37:07+00",8.3,9.3,,27.6,293,207,19,1015.34,25.2,0
"2019-01-29 03:42:07+00",8.4,9.4,,27.6,295,208,20,1015.45,25.3,0
"2019-01-29 03:47:07+00",7.9,8.9,,27.7,251,210,12,1015.47,25.4,0
"2019-01-29 03:52:07+00",7.5,8.5,,27.5,229,206,13,1015.42,25.4,0
"2019-01-29 03:57:07+00",7.3,8.3,,27.3,211,201,4,1015.4,25.3,0
"2019-01-29 04:02:07+00",7.7,8.7,,27.6,232,209,9,1015.31,25.2,0
"2019-01-29 04:07:07+00",7.5,7.5,,27.8,186,240,8,1015.29,25.1,0
"2019-01-29 04:12:07+00",8.0,8.0,,27.9,187,280,6,1015.34,25.1,0
"2019-01-29 04:17:07+00",8.2,9.2,,28,185,294,10,1015.3,25.1,0
"2019-01-29 04:22:07+00",8.6,9.6,,28.3,231,246,4,1015.24,25.3,0
"2019-01-29 04:27:07+00",8.5,8.5,,28.3,211,269,10,1015.29,25.4,0
"2019-01-29 04:32:07+00",8.7,9.7,,28.3,254,243,7,1015.23,25.4,0
"2019-01-29 04:37:07+00",8.1,9.1,,28.3,222,229,5,1015.24,25.5,0
"2019-01-29 04:42:07+00",7.3,8.3,,28.3,194,208,5,1015.27,25.5,0
"2019-01-29 04:47:07+00",6.9,7.9,,28.1,105,253,4,1015.33,25.4,0
"2019-01-29 04:52:07+00",6.6,7.6,,27.6,13,276,8,1015.37,25.2,0
"2019-01-29 04:57:07+00",7.3,8.3,,27.1,43,301,4,1015.36,24.7,0
"2019-01-29 05:02:07+00",7.0,8.0,,26.8,10,291,10,1015.34,24.3,0
"2019-01-29 05:07:07+00",6.8,6.8,,26.5,-7,283,11,1015.37,24,0
"2019-01-29 05:12:07+00",7.1,7.1,,26.3,-17,300,12,1015.45,23.7,0
"2019-01-29 05:17:07+00",6.9,7.9,,26.3,22,286,5,1015.36,23.4,0
"2019-01-29 05:22:07+00",7.1,7.1,,26.3,36,291,7,1015.27,23.2,0
"2019-01-29 05:27:07+00",6.8,6.8,,26.5,34,280,5,1015.27,23,0
"2019-01-29 05:32:07+00",6.4,7.4,,26.4,-30,262,13,1015.3,22.8,0
"2019-01-29 05:37:07+00",4.6,5.6,,25.7,-32,181,6,1015.21,22.7,0
"2019-01-29 05:42:07+00",5.2,5.2,,25.4,-8,211,8,1015.33,22.5,0
"2019-01-29 05:47:07+00",5.1,6.1,,25,-73,201,13,1015.29,22.5,0
"2019-01-29 05:52:07+00",5.6,6.6,,24.7,-76,219,11,1015.18,22.5,0
"2019-01-29 05:57:07+00",5.4,5.4,,24.6,-37,221,7,1015.02,22.4,0
"2019-01-29 06:02:07+00",5.9,5.9,,24.7,-28,246,10,1015.03,22.3,0
"2019-01-29 06:07:07+00",5.8,5.8,,25,-57,237,10,1015.12,22.2,0
"2019-01-29 06:12:07+00",5.7,5.7,,25.2,-32,230,10,1014.98,22.2,0
"2019-01-29 06:17:07+00",5.7,5.7,,25.4,25,229,3,1014.92,22.1,0
"2019-01-29 06:22:07+00",5.2,5.2,,25.6,-3,211,7,1014.97,22,0
"2019-01-29 06:27:07+00",4.8,4.8,,25.6,25,192,3,1014.82,22,0
"2019-01-29 06:32:07+00",4.5,4.5,,25.6,37,176,1,1014.72,22.1,0
"2019-01-29 06:37:07+00",3.3,4.3,,25.9,68,107,6,1014.67,22.3,0
"2019-01-29 06:42:07+00",3.3,4.3,,25.9,75,98,6,1014.72,22.5,0
"2019-01-29 06:47:07+00",2.0,2.0,,25.7,2,71,1,1014.74,22.6,0
"2019-01-29 06:52:07+00",2.9,2.9,,25.5,19,109,0,1014.71,22.7,0
"2019-01-29 06:57:07+00",3.5,3.5,,25.5,50,122,-2,1014.69,22.9,0
"2019-01-29 07:02:07+00",3.4,3.4,,25.7,-18,127,4,1014.93,23,0
"2019-01-29 07:07:07+00",3.9,3.9,,25.7,-48,152,12,1015,23,0
"2019-01-29 07:12:07+00",4.6,5.6,,26,-72,175,12,1015,23.2,0
"2019-01-29 07:17:07+00",5.1,6.1,,26.2,-44,206,2,1014.79,23.2,0
"2019-01-29 07:22:07+00",5.1,5.1,,26.3,-30,209,5,1014.73,23.2,0
"2019-01-29 07:27:07+00",5.3,5.3,,26,-65,210,13,1014.82,23.2,0
"2019-01-29 07:32:07+00",6.2,6.2,,25.4,-83,251,6,1014.75,23.1,0
"2019-01-29 07:37:07+00",5.6,6.6,,25.3,-82,223,10,1014.77,23,0
"2019-01-29 07:42:07+00",6.2,6.2,,25.2,-73,252,10,1014.68,23,0
"2019-01-29 07:47:07+00",5.3,6.3,,25.2,-76,211,10,1014.61,23,0
"2019-01-29 07:52:07+00",5.3,6.3,,25.1,-54,215,5,1014.51,23,0
"2019-01-29 07:57:07+00",4.7,4.7,,25,-34,190,5,1014.35,23,0
"2019-01-29 08:02:07+00",5.6,6.6,,25.2,44,229,1,1014.3,22.9,0
"2019-01-29 08:07:07+00",6.2,6.2,,25.9,109,229,1,1014.18,22.7,0
"2019-01-29 08:12:07+00",6.3,6.3,,26.1,149,210,7,1014.16,22.5,0
"2019-01-29 08:17:07+00",6.9,7.9,,26.5,164,233,5,1014,22.7,0
"2019-01-29 08:22:07+00",8.0,8.0,,26.5,198,250,8,1013.91,23.4,0
"2019-01-29 08:27:07+00",7.2,7.2,,26.8,177,233,8,1013.9,23.9,0
"2019-01-29 08:32:07+00",6.2,7.2,,26.8,113,229,-1,1014,24,0
"2019-01-29 08:37:07+00",5.6,6.6,,26.8,95,208,-3,1013.94,24.1,0
"2019-01-29 08:42:07+00",5.2,5.2,,26.9,59,195,-2,1013.83,24.1,0
"2019-01-29 08:47:07+00",4.9,4.9,,26.9,-76,188,14,1014.12,24.3,0
"2019-01-29 08:52:07+00",5.0,5.0,,27.2,-39,204,6,1014.13,24.4,0
"2019-01-29 08:57:07+00",4.6,4.6,,27.4,-84,170,16,1014.24,24.4,0
"2019-01-29 09:02:07+00",5.0,6.0,,27.3,-127,165,10,1014.21,24.7,0
"2019-01-29 09:07:07+00",3.5,3.5,,27.3,-57,129,5,1014.16,24.9,0
"2019-01-29 09:12:07+00",3.5,3.5,,27.2,-77,118,8,1014.25,24.9,0
"2019-01-29 09:17:07+00",5.5,5.5,,26.9,-159,169,12,1014.24,24.9,0
"2019-01-29 09:22:07+00",4.4,4.4,,27.2,-67,165,3,1014.19,25,0
"2019-01-29 09:27:07+00",5.0,5.0,,27.1,0,198,6,1014.21,24.9,0
"2019-01-29 09:32:07+00",3.2,4.2,,26.9,-82,90,1,1014.11,24.8,0
"2019-01-29 09:37:07+00",4.4,4.4,,26.8,9,176,-1,1014,24.7,0
"2019-01-29 09:42:07+00",4.6,5.6,,27,27,182,0,1013.82,24.7,0
"2019-01-29 09:47:07+00",3.5,3.5,,26.8,-14,138,1,1013.73,24.6,0
"2019-01-29 09:52:07+00",3.4,3.4,,26.7,-98,100,12,1013.77,24.6,0
"2019-01-29 09:57:07+00",4.0,4.0,,26.6,-40,154,1,1013.74,24.7,0
"2019-01-29 10:02:07+00",3.9,3.9,,26.7,9,155,0,1013.79,24.6,0
"2019-01-29 10:07:07+00",3.9,3.9,,26.7,43,141,-2,1013.68,24.5,0
"2019-01-29 10:12:07+00",3.2,4.2,,26.6,-2,123,4,1013.74,24.5,0
"2019-01-29 10:17:07+00",2.6,2.6,,26.6,-32,94,2,1013.67,24.5,0
"2019-01-29 10:22:07+00",4.1,5.1,,26.5,-65,155,12,1013.75,24.7,0
"2019-01-29 10:27:07+00",4.6,4.6,,26.8,-49,179,10,1013.78,24.9,0
"2019-01-29 10:32:07+00",4.9,4.9,,27,-62,194,15,1013.75,25.2,0
"2019-01-29 10:37:07+00",4.2,5.2,,27,-71,157,14,1013.64,25.6,0
"2019-01-29 10:42:07+00",3.7,4.7,,27,-14,149,0,1013.62,25.8,0
"2019-01-29 10:47:07+00",4.9,4.9,,27.2,58,178,-4,1013.54,26,0
"2019-01-29 10:52:07+00",3.8,3.8,,27.2,16,146,1,1013.56,26.1,0
"2019-01-29 10:57:07+00",3.6,3.6,,27.2,-18,140,5,1013.69,26.2,0
"2019-01-29 11:02:07+00",4.1,5.1,,27.4,32,161,0,1013.76,26.3,0
"2019-01-29 11:07:07+00",4.4,4.4,,27.6,58,160,1,1013.72,26.3,0
"2019-01-29 11:12:07+00",3.1,4.1,,27.9,7,116,3,1013.69,26.5,0
"2019-01-29 11:17:07+00",2.9,2.9,,27.9,-9,111,5,1013.75,26.6,0
"2019-01-29 11:22:07+00",3.3,4.3,,28,-1,126,4,1013.74,26.7,0
"2019-01-29 11:27:07+00",3.5,3.5,,28.1,77,109,3,1013.62,26.9,0
"2019-01-29 11:32:07+00",3.2,3.2,,28.3,84,88,7,1013.57,27,0
"2019-01-29 11:37:07+00",3.5,4.5,,28.4,117,74,9,1013.48,27.2,0
"2019-01-29 11:42:07+00",3.1,4.1,,28.5,110,54,7,1013.38,27.4,0
"2019-01-29 11:47:07+00",3.8,3.8,,28.6,123,88,7,1013.47,27.6,0
"2019-01-29 11:52:07+00",2.8,3.8,,28.6,75,67,18,1013.66,27.7,0
"2019-01-29 11:57:07+00",4.4,4.4,,28.7,100,142,7,1013.65,27.7,0
"2019-01-29 12:02:07+00",3.9,3.9,,28.7,76,136,0,1013.66,27.7,0
"2019-01-29 12:07:07+00",3.5,4.5,,29,80,102,1,1013.77,27.7,0
"2019-01-29 12:12:07+00",3.4,3.4,,29.2,75,111,5,1013.65,27.8,0
"2019-01-29 12:17:07+00",2.1,2.1,,29.4,29,69,1,1013.73,27.9,0
"2019-01-29 12:22:07+00",2.3,3.3,,29.3,11,81,0,1013.73,27.9,0
"2019-01-29 12:27:07+00",3.4,3.4,,29.4,28,126,-1,1013.81,28,0
"2019-01-29 12:32:07+00",3.0,3.0,,29.5,7,116,-1,1013.71,28.1,0
"2019-01-29 12:37:07+00",4.1,4.1,,29.6,70,144,1,1013.74,28.2,0
"2019-01-29 12:42:07+00",2.7,3.7,,29.7,55,86,-2,1013.75,28.3,0
"2019-01-29 12:47:07+00",2.8,3.8,,30.4,104,43,-11,1013.7,28.6,0
"2019-01-29 12:52:07+00",3.1,4.1,,31,120,-47,-2,1013.65,28.8,0
"2019-01-29 12:57:07+00",5.0,6.0,,32.1,126,-162,-3,1013.6,29.2,0
"2019-01-29 13:02:07+00",6.7,7.7,,33.5,104,-259,-2,1013.61,29.9,0
"2019-01-29 13:07:07+00",3.9,5.9,,34.2,20,-161,14,1013.6,30.8,0
"2019-01-29 13:12:07+00",5.7,7.7,,35.2,15,-240,3,1013.8,32.2,0
"2019-01-29 13:17:07+00",6.6,7.6,,36,-9,-274,11,1013.82,33.8,0
"2019-01-29 13:22:07+00",4.6,6.6,,36.1,-29,-180,15,1013.94,33.8,1
"2019-01-29 13:27:07+00",3.3,4.3,,35.3,-116,-71,5,1013.86,33.7,5
"2019-01-29 13:32:07+00",3.3,4.3,,34.4,-107,-82,-7,1013.83,33.6,8.5
"2019-01-29 13:37:07+00",2.8,3.8,,34.4,-111,-36,5,1013.88,33.6,11.6
"2019-01-29 13:42:07+00",1.7,2.7,,34.6,-65,-18,7,1013.91,33.8,12.9
"2019-01-29 13:47:07+00",2.1,2.1,,34.6,-81,-11,4,1013.89,33.9,23.3
"2019-01-29 13:52:07+00",0.0,0.0,,34.2,-77,11,11,1014.01,34,32
"2019-01-29 13:57:07+00",0.0,0.0,,34.1,-12,-5,16,1013.83,34,43.7
"2019-01-29 14:02:07+00",4.1,6.1,,34.8,-29,-159,2,1013.84,34.3,52.8
"2019-01-29 14:07:07+00",5.5,7.5,,36.6,-41,-225,-7,1013.87,35.7,90.8
"2019-01-29 14:12:07+00",6.1,9.1,,37.4,-36,-250,7,1013.92,37,87.8
"2019-01-29 14:17:07+00",7.2,9.2,,37.9,-36,-300,-24,1013.96,37.6,56.5
"2019-01-29 14:22:07+00",6.7,8.7,,38,-23,-278,-16,1013.88,37.9,49.7
"2019-01-29 14:27:07+00",5.7,6.7,,38,-29,-243,5,1013.98,38,37.9
"2019-01-29 14:32:07+00",7.6,9.6,,38.1,-32,-312,-21,1013.87,38.1,35.5
"2019-01-29 14:37:07+00",5.9,7.9,,38.2,-25,-239,-4,1013.91,38.2,39
"2019-01-29 14:42:07+00",7.3,9.3,,38.2,-19,-296,-10,1013.89,38.2,26
"2019-01-29 14:47:07+00",6.7,7.7,,38.2,26,-283,-2,1013.74,38.1,34.2
"2019-01-29 14:52:07+00",6.6,8.6,,38.1,41,-272,5,1013.67,38.1,38.4
"2019-01-29 14:57:07+00",7.7,8.7,,38.1,89,-313,-7,1013.49,38.2,46.7
"2019-01-29 15:02:07+00",7.5,8.5,,38.1,97,-298,0,1013.48,38.2,53.8
"2019-01-29 15:07:07+00",8.6,9.6,,38.2,104,-342,-6,1013.43,38.3,45.9
"2019-01-29 15:12:07+00",9.0,10.0,,38.4,106,-360,-14,1013.39,38.4,53.3
"2019-01-29 15:17:07+00",9.7,11.7,,38.5,151,-383,-6,1013.36,38.5,44.7
"2019-01-29 15:22:07+00",8.9,9.9,,38.5,111,-368,5,1013.34,38.6,42
"2019-01-29 15:27:07+00",10.2,12.2,,38.6,147,-412,-8,1013.35,38.6,50.5
"2019-01-29 15:32:07+00",9.9,10.9,,38.7,158,-401,-13,1013.16,38.7,47.7
"2019-01-29 15:37:07+00",9.5,10.5,,38.8,146,-378,15,1013.11,38.9,49.5
"2019-01-29 15:42:07+00",10.4,11.4,,38.9,212,-391,-11,1012.96,39,66.5
"2019-01-29 15:47:07+00",9.8,11.8,,39.1,192,-370,-1,1012.85,39.2,90.8
"2019-01-29 15:52:07+00",11.4,12.4,,39.3,171,-454,-16,1012.83,39.5,75.2
"2019-01-29 15:57:07+00",10.5,11.5,,39.4,140,-429,-7,1012.89,39.5,53.6
"2019-01-29 16:02:07+00",11.5,12.5,,39.2,171,-454,-10,1012.88,39.4,51.3
"2019-01-29 16:07:07+00",11.2,12.2,,39.2,171,-458,-7,1012.73,39.4,58.9
"2019-01-29 16:12:07+00",10.9,13.9,,39.3,153,-436,-10,1012.68,39.5,62.3
"2019-01-29 16:17:07+00",11.4,13.4,,39.4,181,-460,3,1012.5,39.6,89.7
"2019-01-29 16:22:07+00",12.2,14.2,,39.7,213,-481,0,1012.41,39.9,92.2
"2019-01-29 16:27:07+00",13.3,16.3,,39.9,206,-538,-13,1012.3,40.1,86.4
"2019-01-29 16:32:07+00",13.0,15.0,,40,211,-524,-21,1012.17,40.2,84.1
"2019-01-29 16:37:07+00",12.7,14.7,,40,210,-511,-14,1012.08,40.2,71.1
"2019-01-29 16:42:07+00",13.1,15.1,,40,207,-533,-10,1011.94,40.1,62.5
"2019-01-29 16:47:07+00",12.2,14.2,,40,200,-492,14,1011.8,40.1,57
"2019-01-29 16:52:07+00",14.4,16.4,,40,245,-575,-14,1011.66,40.1,66.1
"2019-01-29 16:57:07+00",14.8,15.8,,40.1,256,-589,-9,1011.51,40.2,76.8
"2019-01-29 17:02:07+00",14.8,16.8,,40.3,255,-582,-12,1011.41,40.4,83.4
"2019-01-29 17:07:07+00",13.6,17.6,,40.3,220,-533,15,1011.31,40.5,85.3
"2019-01-29 17:12:07+00",14.4,17.4,,40.4,221,-578,-1,1011.16,40.6,88.7
"2019-01-29 17:17:07+00",15.6,17.6,,40.5,227,-629,-25,1011.1,40.7,98.6
"2019-01-29 17:22:07+00",15.8,17.8,,40.6,218,-637,-27,1010.96,40.9,116.3
"2019-01-29 17:27:07+00",15.8,17.8,,40.8,247,-639,-14,1010.82,41.1,144.1
"2019-01-29 17:32:07+00",16.9,18.9,,40.9,244,-688,-25,1010.69,41.3,136.9
"2019-01-29 17:37:07+00",15.0,16.0,,41,206,-613,-9,1010.73,41.5,143.1
"2019-01-29 17:42:07+00",14.9,17.9,,41.2,219,-622,-15,1010.64,41.6,141.7
"2019-01-29 17:47:07+00",14.0,19.0,,41.2,190,-566,-1,1010.63,41.6,108.1
"2019-01-29 17:52:07+00",16.0,19.0,,41.2,246,-636,-14,1010.42,41.6,104.8
"2019-01-29 17:57:07+00",16.2,18.2,,41.2,268,-642,-19,1010.38,41.6,104.4
"2019-01-29 18:02:07+00",14.4,16.4,,41.3,227,-585,0,1010.35,41.7,101
"2019-01-29 18:07:07+00",14.7,17.7,,41.3,211,-598,-11,1010.26,41.7,106.6
"2019-01-29 18:12:07+00",14.6,16.6,,41.4,242,-572,2,1010.15,41.8,115.6
"2019-01-29 18:17:07+00",13.7,16.7,,41.5,211,-556,-4,1010.12,41.9,100.5
"2019-01-29 18:22:07+00",12.9,15.9,,41.5,178,-523,3,1010.06,41.9,103.6
"2019-01-29 18:27:07+00",13.2,16.2,,41.5,174,-531,-6,1009.93,42,99.6
"2019-01-29 18:32:07+00",13.7,15.7,,41.5,204,-565,-2,1009.84,41.9,92.8
"2019-01-29 18:37:07+00",13.5,16.5,,41.6,202,-540,-4,1009.82,41.9,85.6
"2019-01-29 18:42:07+00",12.9,14.9,,41.6,191,-522,-12,1009.68,41.9,73.8
"2019-01-29 18:47:07+00",13.0,16.0,,41.6,186,-525,-5,1009.53,41.9,59.7
"2019-01-29 18:52:07+00",12.8,15.8,,41.6,201,-535,-21,1009.42,41.9,58.9
"2019-01-29 18:57:07+00",11.6,12.6,,41.5,185,-462,0,1009.33,41.8,31.8
"2019-01-29 19:02:07+00",12.2,14.2,,41.5,215,-476,5,1009.23,41.7,33.8
"2019-01-29 19:07:07+00",14.0,17.0,,41.6,252,-545,-21,1009.11,41.7,66.2
"2019-01-29 19:12:07+00",13.1,15.1,,41.8,224,-516,-11,1009.14,41.9,57.6
"2019-01-29 19:17:07+00",13.7,15.7,,41.9,259,-531,-8,1009.04,42.1,60.9
"2019-01-29 19:22:07+00",13.1,15.1,,41.9,253,-509,-8,1008.83,42,42.6
"2019-01-29 19:27:07+00",13.5,15.5,,41.8,239,-533,-22,1008.87,41.9,12.2
"2019-01-29 19:32:07+00",14.1,15.1,,41.7,243,-556,-17,1008.88,41.7,0.3
"2019-01-29 19:37:07+00",13.8,15.8,,41.6,239,-552,7,1008.8,41.5,5.6
"2019-01-29 19:42:07+00",13.2,15.2,,41.7,237,-513,-2,1008.75,41.5,5.6
"2019-01-29 19:47:07+00",14.2,15.2,,41.7,228,-563,3,1008.7,41.5,0.6
"2019-01-29 19:52:07+00",13.9,15.9,,41.8,233,-556,-4,1008.61,41.6,6.3
"2019-01-29 19:57:07+00",13.8,15.8,,41.8,247,-539,-2,1008.51,41.5,0.1
"2019-01-29 20:02:07+00",13.2,16.2,,41.8,253,-522,5,1008.42,41.5,0
"2019-01-29 20:07:07+00",13.2,16.2,,41.8,239,-516,3,1008.3,41.4,0.1
"2019-01-29 20:12:07+00",14.4,16.4,,41.9,255,-572,-4,1008.27,41.5,0
"2019-01-29 20:17:07+00",13.9,15.9,,41.8,226,-549,-2,1008.25,41.5,0
"2019-01-29 20:22:07+00",13.2,15.2,,41.7,201,-532,-4,1008.21,41.4,0
"2019-01-29 20:27:07+00",14.9,16.9,,41.7,237,-597,-21,1008.14,41.4,0
"2019-01-29 20:32:07+00",13.6,15.6,,41.8,188,-556,-8,1008.1,41.4,0
"2019-01-29 20:37:07+00",13.4,16.4,,41.7,172,-546,-4,1008.16,41.4,0
"2019-01-29 20:42:07+00",13.8,15.8,,41.8,154,-561,-7,1008.17,41.4,0
"2019-01-29 20:47:07+00",13.9,16.9,,41.8,161,-578,-12,1008.04,41.4,0
"2019-01-29 20:52:07+00",14.1,16.1,,41.9,202,-575,9,1007.89,41.5,0
"2019-01-29 20:57:07+00",15.2,17.2,,42.1,214,-618,-12,1007.83,41.6,0
"2019-01-29 21:02:07+00",16.6,18.6,,42.1,243,-672,-18,1007.78,41.6,0
"2019-01-29 21:07:07+00",15.0,17.0,,42,195,-616,-8,1007.67,41.6,0
"2019-01-29 21:12:07+00",15.6,18.6,,42.1,226,-641,-8,1007.52,41.6,0
"2019-01-29 21:17:07+00",16.3,19.3,,42.1,207,-668,-16,1007.4,41.7,0
"2019-01-29 21:22:07+00",15.0,20.0,,42.1,168,-621,-10,1007.39,41.7,0
"2019-01-29 21:27:07+00",16.2,20.2,,42.2,187,-657,-11,1007.37,41.8,0
"2019-01-29 21:32:07+00",18.0,21.0,,42.3,226,-743,-24,1007.3,41.8,0
"2019-01-29 21:37:07+00",16.6,18.6,,42.2,203,-671,-11,1007.11,41.8,0
"2019-01-29 21:42:07+00",16.8,18.8,,42.2,176,-690,-18,1007.22,41.8,0
"2019-01-29 21:47:07+00",16.5,19.5,,42.3,162,-683,-8,1007.21,41.9,0
"2019-01-29 21:52:07+00",15.5,18.5,,42.4,129,-643,2,1007.22,41.9,0
"2019-01-29 21:57:07+00",15.7,19.7,,42.4,124,-671,-16,1007.27,42,0
"2019-01-29 22:02:07+00",15.3,18.3,,42.4,125,-636,-30,1007.08,41.9,0
"2019-01-29 22:07:07+00",13.4,17.4,,42.3,90,-555,-9,1006.99,41.9,0
"2019-01-29 22:12:07+00",13.6,15.6,,42.4,72,-580,-5,1007.14,41.9,0
"2019-01-29 22:17:07+00",13.9,16.9,,42.3,67,-588,-11,1007.05,41.9,0
"2019-01-29 22:22:07+00",14.3,18.3,,42.3,72,-608,-11,1007.01,41.8,0
"2019-01-29 22:27:07+00",12.8,14.8,,42.2,43,-542,-9,1007.05,41.8,0
"2019-01-29 22:32:07+00",14.1,18.1,,42.2,85,-608,-16,1006.86,41.7,0
"2019-01-29 22:37:07+00",13.7,16.7,,42.2,91,-585,-13,1006.75,41.7,0
"2019-01-29 22:42:07+00",14.4,17.4,,42.3,72,-615,-9,1006.78,41.7,0
"2019-01-29 22:47:07+00",14.4,18.4,,42.5,54,-614,-23,1006.81,41.9,0
"2019-01-29 22:52:07+00",14.7,16.7,,42.7,67,-624,-4,1006.72,42,0
"2019-01-29 22:57:07+00",15.8,19.8,,42.8,44,-676,-27,1006.86,42.1,0
"2019-01-29 23:02:07+00",17.9,20.9,,42.8,73,-775,-26,1006.86,42.3,0
"2019-01-29 23:07:07+00",15.9,19.9,,42.7,75,-681,-13,1006.82,42.2,0
"2019-01-29 23:12:07+00",15.2,18.2,,42.7,45,-630,-27,1006.76,42.2,0
"2019-01-29 23:17:07+00",15.0,20.0,,42.7,41,-616,-37,1006.74,42.2,0
"2019-01-29 23:22:07+00",17.4,21.4,,42.9,126,-714,-29,1006.55,42.3,0
"2019-01-29 23:27:07+00",17.1,21.1,,43,56,-726,-34,1006.68,42.4,0
"2019-01-29 23:32:07+00",14.0,18.0,,42.9,-445,149,-405,1006.86,42.4,0
"2019-01-29 23:37:07+00",15.5,18.5,,43.1,-966,745,-774,1007.12,42.5,0
"2019-01-29 23:42:07+00",14.2,18.2,,43.4,-1784,2625,-1568,1007.52,42.7,0
"2019-01-29 23:47:07+00",12.8,13.8,,43.2,-2007,2404,-1471,1007.72,42.4,0
